IGO6617 VOHS-VOMM

Flight info

Callsign IGO6617
Flight time 0h 51m
Altitude 35000
Route BOPRI5 BOPRI BOPRI2F
Aircraft A20N/M-SDE2E3FGHIRWXY/LB1

Departure

Time 2026-04-25 10:05
Airport Rajiv Gandhi International Airport (VOHS)

Arrival

Time 2026-04-25 10:57
Airport Chennai International Airport (VOMM)
Time Latitude Longitude Altitude Speed Heading
2026-04-25 09:12 17.23422 78.43327 1981 ft 0 kts
2026-04-25 09:51 17.23411 78.43327 1983 ft 3 kts 355°
2026-04-25 09:51 17.23392 78.43330 1980 ft 3 kts 338°
2026-04-25 09:52 17.23374 78.43340 1980 ft 3 kts 311°
2026-04-25 09:52 17.23365 78.43356 1980 ft 3 kts 272°
2026-04-25 09:52 17.23364 78.43349 1981 ft 3 kts 269°
2026-04-25 09:52 17.23364 78.43334 1979 ft 0 kts 269°
2026-04-25 09:57 17.23364 78.43316 1982 ft 4 kts 269°
2026-04-25 09:57 17.23363 78.43273 1982 ft 7 kts 269°
2026-04-25 09:58 17.23362 78.43209 1980 ft 10 kts 268°
2026-04-25 09:58 17.23313 78.43160 1979 ft 12 kts 184°
2026-04-25 09:58 17.23227 78.43161 1979 ft 12 kts 179°
2026-04-25 09:58 17.23175 78.43162 1981 ft 8 kts 179°
2026-04-25 09:59 17.23109 78.43177 1979 ft 11 kts 144°
2026-04-25 09:59 17.23086 78.43257 1979 ft 13 kts 90°
2026-04-25 09:59 17.23088 78.43366 1978 ft 16 kts 89°
2026-04-25 09:59 17.23090 78.43491 1979 ft 18 kts 89°
2026-04-25 10:00 17.23091 78.43628 1980 ft 20 kts 89°
2026-04-25 10:00 17.23093 78.43778 1979 ft 22 kts 89°
2026-04-25 10:00 17.23096 78.43941 1980 ft 23 kts 89°
2026-04-25 10:00 17.23098 78.44113 1981 ft 24 kts 89°
2026-04-25 10:01 17.23101 78.44292 1980 ft 22 kts 89°
2026-04-25 10:01 17.23104 78.44460 1980 ft 24 kts 88°
2026-04-25 10:01 17.23105 78.44638 1980 ft 25 kts 89°
2026-04-25 10:01 17.23108 78.44798 1979 ft 20 kts 89°
2026-04-25 10:02 17.23109 78.44929 1981 ft 17 kts 89°
2026-04-25 10:02 17.23112 78.45061 1983 ft 19 kts 89°
2026-04-25 10:02 17.23114 78.45205 1979 ft 18 kts 88°
2026-04-25 10:02 17.23107 78.45292 1980 ft 9 kts 114°
2026-04-25 10:03 17.23056 78.45318 1980 ft 8 kts 178°
2026-04-25 10:03 17.23035 78.45318 1980 ft 0 kts 180°
2026-04-25 10:03 17.23030 78.45318 1980 ft 0 kts 180°
2026-04-25 10:03 17.23020 78.45318 1981 ft 3 kts 180°
2026-04-25 10:04 17.22988 78.45309 1979 ft 6 kts 210°
2026-04-25 10:04 17.22946 78.45277 1982 ft 9 kts 216°
2026-04-25 10:04 17.22911 78.45239 1984 ft 6 kts 249°
2026-04-25 10:04 17.22909 78.45175 1981 ft 15 kts 270°
2026-04-25 10:05 17.22904 78.44843 1980 ft 80 kts 269°
2026-04-25 10:05 17.22893 78.44042 1979 ft 137 kts 269°
2026-04-25 10:05 17.22880 78.42895 2110 ft 168 kts 270°
2026-04-25 10:05 17.22876 78.41675 2746 ft 170 kts 270°
2026-04-25 10:06 17.22891 78.40411 3267 ft 176 kts 271°
2026-04-25 10:06 17.22898 78.39117 3751 ft 182 kts 269°
2026-04-25 10:06 17.22870 78.37728 4081 ft 201 kts 269°
2026-04-25 10:06 17.22647 78.36213 4380 ft 223 kts 245°
2026-04-25 10:07 17.21652 78.34921 4722 ft 245 kts 212°
2026-04-25 10:07 17.20016 78.34278 5162 ft 262 kts 183°
2026-04-25 10:07 17.18171 78.34556 5654 ft 277 kts 154°
2026-04-25 10:07 17.16624 78.35739 6473 ft 278 kts 131°
2026-04-25 10:08 17.15382 78.37308 7336 ft 281 kts 127°
2026-04-25 10:08 17.14220 78.38965 8156 ft 284 kts 121°
2026-04-25 10:08 17.13210 78.40750 9027 ft 286 kts 116°
2026-04-25 10:08 17.12265 78.42594 9926 ft 289 kts 118°
2026-04-25 10:09 17.11226 78.44450 10458 ft 306 kts 119°
2026-04-25 10:09 17.10081 78.46420 10739 ft 329 kts 120°
2026-04-25 10:09 17.08851 78.48510 11191 ft 343 kts 120°
2026-04-25 10:09 17.07610 78.50616 11980 ft 346 kts 120°
2026-04-25 10:10 17.06327 78.52799 12776 ft 350 kts 120°
2026-04-25 10:10 17.05065 78.54952 13532 ft 355 kts 120°
2026-04-25 10:10 17.03773 78.57161 14251 ft 359 kts 120°
2026-04-25 10:10 17.02397 78.59360 14892 ft 365 kts 126°
2026-04-25 10:11 17.00734 78.61379 15498 ft 371 kts 135°
2026-04-25 10:11 16.98800 78.63227 16117 ft 376 kts 139°
2026-04-25 10:11 16.96864 78.65036 16734 ft 381 kts 139°
2026-04-25 10:11 16.94873 78.66906 17356 ft 385 kts 139°
2026-04-25 10:12 16.92871 78.68789 17992 ft 389 kts 140°
2026-04-25 10:12 16.90840 78.70700 18553 ft 393 kts 140°
2026-04-25 10:12 16.86750 78.74548 19664 ft 399 kts 140°
2026-04-25 10:13 16.84677 78.76498 20181 ft 402 kts 140°
2026-04-25 10:13 16.82585 78.78464 20732 ft 405 kts 140°
2026-04-25 10:13 16.80481 78.80441 21265 ft 409 kts 140°
2026-04-25 10:13 16.78358 78.82435 21786 ft 412 kts 141°
2026-04-25 10:14 16.76214 78.84448 22306 ft 415 kts 141°
2026-04-25 10:14 16.74081 78.86449 22814 ft 419 kts 141°
2026-04-25 10:14 16.71919 78.88478 23316 ft 422 kts 141°
2026-04-25 10:14 16.69729 78.90532 23763 ft 424 kts 141°
2026-04-25 10:15 16.67520 78.92604 24218 ft 426 kts 141°
2026-04-25 10:15 16.65308 78.94679 24682 ft 428 kts 141°
2026-04-25 10:15 16.63090 78.96758 25103 ft 430 kts 141°
2026-04-25 10:15 16.60886 78.98823 25529 ft 432 kts 141°
2026-04-25 10:16 16.58650 79.00916 25946 ft 434 kts 141°
2026-04-25 10:16 16.56395 79.03028 26360 ft 436 kts 142°
2026-04-25 10:16 16.54135 79.05143 26744 ft 438 kts 142°
2026-04-25 10:16 16.51864 79.07268 27126 ft 440 kts 142°
2026-04-25 10:17 16.49582 79.09403 27516 ft 442 kts 142°
2026-04-25 10:17 16.47289 79.11546 27899 ft 444 kts 142°
2026-04-25 10:17 16.44984 79.13700 28264 ft 446 kts 142°
2026-04-25 10:17 16.42662 79.15869 28626 ft 448 kts 142°
2026-04-25 10:18 16.40339 79.18038 28985 ft 450 kts 142°
2026-04-25 10:18 16.37995 79.20226 29329 ft 452 kts 142°
2026-04-25 10:18 16.35651 79.22415 29666 ft 455 kts 142°
2026-04-25 10:18 16.33280 79.24626 29985 ft 457 kts 142°
2026-04-25 10:19 16.30908 79.26838 30268 ft 460 kts 142°
2026-04-25 10:19 16.28521 79.29064 30538 ft 462 kts 142°
2026-04-25 10:19 16.26146 79.31278 30804 ft 465 kts 142°
2026-04-25 10:19 16.23733 79.33527 31127 ft 466 kts 143°
2026-04-25 10:20 16.21314 79.35780 31490 ft 467 kts 143°
2026-04-25 10:20 16.18890 79.38039 31853 ft 467 kts 143°
2026-04-25 10:20 16.16470 79.40292 32218 ft 467 kts 143°
2026-04-25 10:20 16.14054 79.42541 32560 ft 466 kts 143°
2026-04-25 10:21 16.11634 79.44793 32918 ft 466 kts 143°
2026-04-25 10:21 16.09212 79.47045 33248 ft 467 kts 143°
2026-04-25 10:21 16.06784 79.49303 33583 ft 467 kts 144°
2026-04-25 10:21 16.04369 79.51547 33891 ft 466 kts 144°
2026-04-25 10:22 16.01952 79.53792 34181 ft 466 kts 144°
2026-04-25 10:22 16.00349 79.55281 34375 ft 465 kts 144°
2026-04-25 10:22 15.97145 79.58256 34723 ft 465 kts 144°
2026-04-25 10:23 15.92320 79.62734 34807 ft 463 kts 144°
2026-04-25 10:23 15.87537 79.67167 34804 ft 463 kts 144°
2026-04-25 10:24 15.82721 79.71628 34804 ft 463 kts 144°
2026-04-25 10:24 15.77908 79.76085 34805 ft 463 kts 144°
2026-04-25 10:25 15.73100 79.80533 34803 ft 463 kts 144°
2026-04-25 10:25 15.68290 79.84981 34804 ft 463 kts 144°
2026-04-25 10:26 15.63480 79.89426 34803 ft 463 kts 144°
2026-04-25 10:26 15.58411 79.93445 34805 ft 452 kts 156°
2026-04-25 10:27 15.52695 79.95803 34799 ft 440 kts 172°
2026-04-25 10:27 15.46705 79.97026 34806 ft 438 kts 174°
2026-04-25 10:28 15.40723 79.98245 34805 ft 438 kts 174°
2026-04-25 10:28 15.34735 79.99466 34806 ft 438 kts 174°
2026-04-25 10:29 15.28740 80.00683 34808 ft 439 kts 174°
2026-04-25 10:29 15.22739 80.01902 34810 ft 439 kts 174°
2026-04-25 10:30 15.16771 80.03115 34813 ft 439 kts 174°
2026-04-25 10:30 15.10767 80.04335 34809 ft 439 kts 174°
2026-04-25 10:31 15.04770 80.05552 34811 ft 439 kts 174°
2026-04-25 10:31 14.98778 80.06768 34811 ft 438 kts 174°
2026-04-25 10:32 14.92843 80.07972 34591 ft 435 kts 174°
2026-04-25 10:32 14.89872 80.08575 34082 ft 434 kts 174°
2026-04-25 10:32 14.86906 80.09174 33366 ft 435 kts 173°
2026-04-25 10:32 14.83921 80.09777 32522 ft 437 kts 173°
2026-04-25 10:33 14.80924 80.10381 31664 ft 440 kts 173°
2026-04-25 10:33 14.78932 80.10782 31096 ft 442 kts 173°
2026-04-25 10:33 14.75899 80.11394 30253 ft 445 kts 172°
2026-04-25 10:33 14.72859 80.12008 29511 ft 444 kts 172°
2026-04-25 10:34 14.69834 80.12618 28827 ft 439 kts 171°
2026-04-25 10:34 14.66839 80.13222 28170 ft 436 kts 171°
2026-04-25 10:34 14.62911 80.14016 27299 ft 431 kts 171°
2026-04-25 10:34 14.60907 80.14295 26855 ft 428 kts 179°
2026-04-25 10:35 14.57953 80.14123 26201 ft 423 kts 190°
2026-04-25 10:35 14.55100 80.13632 25610 ft 420 kts 191°
2026-04-25 10:35 14.52229 80.13140 25015 ft 417 kts 190°
2026-04-25 10:35 14.49379 80.12655 24441 ft 414 kts 190°
2026-04-25 10:36 14.46540 80.12176 23883 ft 411 kts 190°
2026-04-25 10:36 14.43728 80.11701 23322 ft 408 kts 190°
2026-04-25 10:36 14.40936 80.11230 22654 ft 406 kts 190°
2026-04-25 10:36 14.38161 80.10761 22083 ft 401 kts 190°
2026-04-25 10:37 14.35424 80.10299 21486 ft 397 kts 189°
2026-04-25 10:37 14.32696 80.09839 20898 ft 394 kts 189°
2026-04-25 10:37 14.29997 80.09385 20320 ft 391 kts 189°
2026-04-25 10:37 14.27321 80.08934 19762 ft 388 kts 189°
2026-04-25 10:38 14.24696 80.08492 19212 ft 385 kts 189°
2026-04-25 10:38 14.22025 80.08043 18663 ft 383 kts 189°
2026-04-25 10:38 14.19445 80.07608 18158 ft 379 kts 188°
2026-04-25 10:38 14.16840 80.07170 17515 ft 378 kts 188°
2026-04-25 10:39 14.14236 80.06732 16782 ft 380 kts 188°
2026-04-25 10:39 14.11627 80.06294 16097 ft 381 kts 188°
2026-04-25 10:39 14.09010 80.05855 15420 ft 382 kts 188°
2026-04-25 10:39 14.06394 80.05416 14991 ft 377 kts 188°
2026-04-25 10:40 14.03824 80.04985 14842 ft 373 kts 188°
2026-04-25 10:40 14.01231 80.04551 14803 ft 382 kts 188°
2026-04-25 10:40 13.98589 80.04109 14802 ft 385 kts 188°
2026-04-25 10:40 13.95960 80.03669 14803 ft 383 kts 188°
2026-04-25 10:41 13.93323 80.03226 14801 ft 383 kts 188°
2026-04-25 10:41 13.90693 80.02785 14803 ft 382 kts 188°
2026-04-25 10:41 13.88068 80.02345 14774 ft 382 kts 188°
2026-04-25 10:41 13.85486 80.01913 14541 ft 381 kts 188°
2026-04-25 10:42 13.82875 80.01477 14115 ft 380 kts 188°
2026-04-25 10:42 13.80269 80.01040 13570 ft 379 kts 188°
2026-04-25 10:42 13.77666 80.00604 13044 ft 376 kts 188°
2026-04-25 10:42 13.75092 80.00172 12522 ft 373 kts 188°
2026-04-25 10:43 13.72537 79.99743 12016 ft 371 kts 188°
2026-04-25 10:43 13.70002 79.99319 11530 ft 368 kts 188°
2026-04-25 10:43 13.67481 79.98897 11036 ft 365 kts 188°
2026-04-25 10:43 13.64986 79.98479 10567 ft 362 kts 188°
2026-04-25 10:44 13.62511 79.98066 10178 ft 356 kts 187°
2026-04-25 10:44 13.60109 79.97666 10044 ft 342 kts 186°
2026-04-25 10:44 13.57802 79.97701 9923 ft 325 kts 169°
2026-04-25 10:44 13.55614 79.98057 9802 ft 312 kts 168°
2026-04-25 10:45 13.53495 79.98405 9499 ft 306 kts 168°
2026-04-25 10:45 13.51426 79.98746 8982 ft 302 kts 168°
2026-04-25 10:45 13.49356 79.99088 8409 ft 300 kts 168°
2026-04-25 10:45 13.47311 79.99425 7894 ft 296 kts 168°
2026-04-25 10:46 13.45287 79.99759 7356 ft 293 kts 168°
2026-04-25 10:46 13.43274 80.00092 6998 ft 291 kts 168°
2026-04-25 10:46 13.41299 80.00418 6829 ft 282 kts 169°
2026-04-25 10:46 13.39406 80.00728 6724 ft 270 kts 169°
2026-04-25 10:47 13.37598 80.01025 6604 ft 255 kts 168°
2026-04-25 10:47 13.35893 80.01304 6447 ft 241 kts 169°
2026-04-25 10:47 13.34256 80.01574 6143 ft 236 kts 169°
2026-04-25 10:47 13.32647 80.01841 5760 ft 233 kts 169°
2026-04-25 10:48 13.31052 80.02105 5397 ft 230 kts 169°
2026-04-25 10:48 13.29500 80.02362 5044 ft 227 kts 169°
2026-04-25 10:48 13.27948 80.02619 4706 ft 224 kts 169°
2026-04-25 10:48 13.26420 80.02871 4374 ft 221 kts 170°
2026-04-25 10:49 13.25912 80.02955 4283 ft 218 kts 170°
2026-04-25 10:50 13.19438 80.04013 3024 ft 190 kts 169°
2026-04-25 10:50 13.18131 80.04156 2667 ft 189 kts 182°
2026-04-25 10:50 13.16862 80.03786 2393 ft 190 kts 207°
2026-04-25 10:50 13.15717 80.03136 2311 ft 190 kts 205°
2026-04-25 10:51 13.14597 80.02519 2303 ft 174 kts 204°
2026-04-25 10:51 13.13582 80.01974 2299 ft 158 kts 203°
2026-04-25 10:51 13.12654 80.01478 2301 ft 142 kts 201°
2026-04-25 10:51 13.11780 80.01019 2328 ft 146 kts 199°
2026-04-25 10:52 13.10801 80.00959 2301 ft 140 kts 158°
2026-04-25 10:52 13.09967 80.01489 2302 ft 144 kts 146°
2026-04-25 10:52 13.09137 80.02050 2305 ft 142 kts 147°
2026-04-25 10:52 13.08300 80.02596 2299 ft 142 kts 148°
2026-04-25 10:53 13.07460 80.03135 2303 ft 142 kts 147°
2026-04-25 10:53 13.06746 80.03821 2287 ft 139 kts 126°
2026-04-25 10:53 13.06284 80.04698 2052 ft 141 kts 118°
2026-04-25 10:53 13.05849 80.05573 1863 ft 134 kts 119°
2026-04-25 10:54 13.05426 80.06411 1700 ft 128 kts 121°
2026-04-25 10:54 13.05151 80.06953 1550 ft 132 kts 121°
2026-04-25 10:54 13.04552 80.08111 1401 ft 139 kts 120°
2026-04-25 10:54 13.04104 80.08972 1352 ft 135 kts 120°
2026-04-25 10:55 13.03664 80.09826 1349 ft 136 kts 120°
2026-04-25 10:55 13.03248 80.10644 1257 ft 124 kts 121°
2026-04-25 10:55 13.02854 80.11423 1102 ft 122 kts 121°
2026-04-25 10:55 13.02448 80.12201 944 ft 125 kts 120°
2026-04-25 10:56 13.02026 80.13007 819 ft 129 kts 120°
2026-04-25 10:56 13.01612 80.13810 666 ft 127 kts 120°
2026-04-25 10:56 13.01219 80.14608 451 ft 123 kts 120°
2026-04-25 10:56 13.00831 80.15359 253 ft 117 kts 122°
2026-04-25 10:57 13.00421 80.16139 120 ft 129 kts 121°
2026-04-25 10:57 13.00033 80.16896 53 ft 101 kts 117°
2026-04-25 10:57 12.99798 80.17353 56 ft 43 kts 117°
2026-04-25 10:57 12.99682 80.17578 55 ft 34 kts 116°
2026-04-25 10:58 12.99573 80.17793 54 ft 34 kts 117°
2026-04-25 10:58 12.99480 80.17972 51 ft 27 kts 117°
2026-04-25 10:58 12.99393 80.18116 53 ft 15 kts 156°
2026-04-25 10:58 12.99338 80.18067 57 ft 12 kts 248°
2026-04-25 10:59 12.99304 80.17983 54 ft 15 kts 248°
2026-04-25 10:59 12.99275 80.17903 52 ft 13 kts 250°
2026-04-25 10:59 12.99238 80.17804 55 ft 16 kts 248°
2026-04-25 10:59 12.99177 80.17704 53 ft 17 kts 199°
2026-04-25 11:00 12.99100 80.17612 53 ft 19 kts 249°
2026-04-25 11:00 12.99049 80.17477 53 ft 22 kts 249°
2026-04-25 11:00 12.98993 80.17330 50 ft 15 kts 249°
2026-04-25 11:00 12.98945 80.17228 55 ft 16 kts 244°
2026-04-25 11:01 12.98899 80.17118 52 ft 18 kts 248°
2026-04-25 11:01 12.98851 80.16987 51 ft 21 kts 248°
2026-04-25 11:01 12.98794 80.16838 54 ft 23 kts 249°
2026-04-25 11:01 12.98743 80.16736 52 ft 13 kts 211°
2026-04-25 11:02 12.98682 80.16746 52 ft 14 kts 158°
2026-04-25 11:02 12.98581 80.16737 52 ft 12 kts 244°
2026-04-25 11:02 12.98558 80.16676 51 ft 15 kts 249°
2026-04-25 11:02 12.98523 80.16582 53 ft 9 kts 249°
2026-04-25 11:03 12.98462 80.16561 54 ft 7 kts 160°
2026-04-25 11:03 12.98455 80.16564 53 ft 1 kts 161°
2026-04-25 11:03 12.98450 80.16565 52 ft 1 kts 161°
2026-04-25 11:03 12.98449 80.16566 52 ft 0 kts 160°